[[{"header":{"parameterUnit":"m.s-1","parameterCategory":1,"la1":30.2991,"la2":30.254,"lo1":-89.0895,"lo2":-89.0444,"dy":0.0017,"dx":0.0017,"nx":28,"ny":28,"refTime":"2025-07-16T09:00:00:Z","depth":0,"parameterNumber":2,"parameterNumberName":"U-component_of_WINDS"},"data":[0,0,0,0,0,0,0,0,0,0,0,0,0,0,0,0,0,0,0,0,0,0,0,0,0,0,0,0,0,0,0,0,0,0,0,0,0,0,0,0,0,0,0,0,0,0,0,0,0,0,0,0,0,0,0,0,0,0,-5.0094,-5.0095,0,-5.0144,-5.0145,-5.0145,-5.0154,-5.0153,-5.0153,-5.0153,-5.0201,-5.0203,-5.0205,0,0,0,0,0,0,0,0,0,0,0,0,0,-5.0003,-5.0005,-5.0094,-5.0095,-5.0096,-5.0144,-5.0145,-5.0145,-5.0154,-5.0153,-5.0153,-5.0152,-5.0201,-5.0203,-5.0205,0,0,0,0,0,0,0,0,0,0,0,0,0,-5.0047,-5.0006,-5.0094,-5.0106,-5.0107,-5.0144,-5.0145,-5.0146,-5.0154,-5.0153,-5.0153,-5.0152,-5.02,-5.0203,-5.0205,-5.0233,0,0,-5.0213,-5.0214,0,0,0,0,0,0,0,0,-5.0044,-5.005,-5.0103,-5.0105,-5.0107,-5.0142,-5.0131,-5.0175,-5.0154,-5.0136,-5.0153,-5.0152,-5.0182,-5.0186,-5.0197,-5.0235,-5.0238,-5.0213,-5.0215,-5.0216,-5.0216,0,0,0,0,0,0,0,-5.0041,-5.0048,-5.0114,-5.0104,-5.0106,-5.0107,-5.0113,-5.0139,-5.0162,-5.0138,-5.0138,-5.0144,-5.0183,-5.0194,-5.0198,-5.0238,-5.0213,-5.0215,-5.0217,-5.0218,-5.03,-5.0301,0,0,0,0,0,0,-5.0037,-5.0046,-5.0112,-5.0115,-5.0074,-5.0109,-5.0116,-5.0131,-5.0162,-5.0166,-5.0145,-5.0145,-5.019,-5.0195,-5.02,-5.0233,-5.0216,-5.0218,-5.022,-5.03,-5.0301,-5.0301,0,0,0,0,0,0,-5.0035,-5.0043,-5.011,-5.0081,-5.0089,-5.0112,-5.0129,-5.0133,-5.0144,-5.0167,-5.0171,-5.0152,-5.019,-5.0196,-5.0224,-5.0235,-5.0219,-5.0222,-5.0299,-5.03,-5.0301,-5.0301,0,0,0,0,0,0,-5.0032,-5.0042,-5.0054,-5.0081,-5.0091,-5.0135,-5.013,-5.0134,-5.0149,-5.0149,-5.0175,-5.0179,-5.019,-5.0221,-5.0227,-5.0238,-5.0224,-5.0298,-5.0299,-5.0301,-5.03,-5.0301,-5.0303,0,0,0,0,0,-5.0029,-5.0052,-5.0054,-5.0062,-5.0106,-5.0136,-5.0141,-5.0154,-5.015,-5.0161,-5.0175,-5.0178,-5.0233,-5.0223,-5.0231,-5.0243,-5.0297,-5.0299,-5.03,-5.0299,-5.0301,-5.0303,0,0,0,0,0,0,-5.0024,-5.0055,-5.0059,-5.0091,-5.0111,-5.0137,-5.0152,-5.0156,-5.0177,-5.0176,-5.0191,-5.0197,-5.0224,-5.0236,-5.0225,-5.027,-5.0265,-5.0268,-5.0261,-5.0263,-5.0265,-5.0261,-5.0226,0,0,0,0,0,-5.0027,-5.005,-5.0075,-5.0101,-5.0111,-5.013,-5.0143,-5.0151,-5.0172,-5.018,-5.0197,-5.0216,-5.0237,-5.0251,-5.0272,-5.0302,-5.0307,-5.0313,-5.0315,-5.0316,-5.0318,-5.0333,-5.0336,-5.0306,-5.0306,-5.0306,0,0,-5.0033,-5.0053,-5.0066,-5.0101,-5.0117,-5.0138,-5.0137,-5.016,-5.0176,-5.0183,-5.0211,-5.0224,-5.0246,-5.0275,-5.0288,-5.0286,-5.0328,-5.0318,-5.0319,-5.032,-5.0335,-5.0338,-5.034,-5.0307,-5.0307,-5.0307,0,0,-5.0055,-5.0073,-5.0095,-5.0112,-5.0136,-5.0148,-5.0154,-5.018,-5.0188,-5.0216,-5.0222,-5.0241,-5.0278,-5.0293,-5.0305,-5.0331,-5.0334,-5.0338,-5.0346,-5.036,-5.0362,-5.0364,-5.0372,-5.0375,-5.034,-5.034,-5.034,0,-5.0059,-5.0092,-5.0106,-5.0129,-5.0143,-5.0152,-5.0174,-5.0189,-5.0219,-5.0228,-5.0225,-5.0271,-5.0287,-5.0318,-5.0324,-5.0335,-5.034,-5.0334,-5.0361,-5.0363,-5.0365,-5.0373,-5.0376,-5.034,-5.034,-5.034,-5.034,0,-5.0095,-5.0118,-5.0133,-5.0162,-5.0178,-5.0201,-5.0217,-5.0231,-5.0237,-5.0249,-5.0277,-5.0296,-5.032,-5.0329,-5.0335,-5.0361,-5.0358,-5.0358,-5.0352,-5.0368,-5.0375,-5.0378,-5.034,-5.034,-5.034,-5.034,0,0,-5.0115,-5.0151,-5.0156,-5.0168,-5.0196,-5.0213,-5.0235,-5.0259,-5.0271,-5.0291,-5.0309,-5.0339,-5.0339,-5.0353,-5.0361,-5.0374,-5.0391,-5.0372,-5.0373,-5.0374,-5.0418,-5.0417,-5.0421,-5.0394,-5.0394,-5.0395,-5.0416,0,-5.0139,-5.0179,-5.0191,-5.0224,-5.0245,-5.0252,-5.0271,-5.0289,-5.0301,-5.0319,-5.0332,-5.0353,-5.0352,-5.036,-5.0373,-5.0386,-5.04,-5.0385,-5.0409,-5.041,-5.0402,-5.0425,-5.0424,-5.0443,-5.0419,-5.042,-5.042,0,-5.0172,-5.0192,-5.0227,-5.025,-5.0259,-5.0276,-5.0298,-5.0316,-5.0336,-5.0344,-5.0359,-5.0366,-5.0388,-5.0382,-5.0412,-5.0401,-5.0412,-5.042,-5.0421,-5.0422,-5.0415,-5.0426,-5.045,-5.0452,-5.0425,-5.0424,-5.0424,0,-5.018,-5.0217,-5.0242,-5.0253,-5.0281,-5.0292,-5.0304,-5.0324,-5.0337,-5.0357,-5.0365,-5.0387,-5.0398,-5.0414,-5.0426,-5.0421,-5.0454,-5.045,-5.046,-5.0459,-5.0466,-5.0465,-5.049,-5.0475,-5.0475,-5.0474,-5.0474,0,-5.0204,-5.0225,-5.0246,-5.0261,-5.0284,-5.0298,-5.032,-5.0333,-5.035,-5.0367,-5.0375,-5.0391,-5.0407,-5.0424,-5.0434,-5.0456,-5.0461,-5.0467,-5.0469,-5.0466,-5.0465,-5.0472,-5.047,-5.0475,-5.0475,-5.0475,-5.0475,0,-5.0218,-5.0233,-5.0261,-5.0285,-5.0291,-5.0307,-5.0327,-5.0342,-5.0354,-5.0375,-5.0381,-5.0399,-5.042,-5.0434,-5.0461,-5.0467,-5.0491,-5.0493,-5.0484,-5.0485,-5.0494,-5.0492,-5.0524,-5.0528,-5.051,-5.0511,-5.0511,0,-5.0231,-5.0247,-5.0273,-5.0285,-5.0297,-5.0317,-5.033,-5.0344,-5.0358,-5.0381,-5.0393,-5.0414,-5.0432,-5.0465,-5.048,-5.05,-5.0502,-5.0512,-5.0505,-5.0501,-5.0501,-5.0499,-5.05,-5.0513,-5.0513,-5.0513,-5.0513,0,-5.0253,-5.026,-5.0279,-5.03,-5.0316,-5.0334,-5.0351,-5.0361,-5.0378,-5.0392,-5.0414,-5.0427,-5.0455,-5.0475,-5.0497,-5.0508,-5.0513,-5.0515,-5.0518,-5.0514,-5.0508,-5.051,-5.0485,-5.0514,-5.0514,-5.0514,-5.0514,-5.0514,-5.0266,-5.028,-5.03,-5.0321,-5.0335,-5.0351,-5.0366,-5.0379,-5.0398,-5.0421,-5.0428,-5.045,-5.0469,-5.0498,-5.051,-5.0527,-5.0526,-5.0531,-5.0532,-5.0532,-5.0532,-5.0506,-5.0531,-5.0531,-5.0531,-5.0531,-5.0531,0,-5.0287,-5.03,-5.0319,-5.0343,-5.0359,-5.0363,-5.0382,-5.0395,-5.0414,-5.0432,-5.0449,-5.0473,-5.0493,-5.051,-5.053,-5.054,-5.0543,-5.0545,-5.0544,-5.0546,-5.0532,-5.0527,-5.0543,-5.0543,-5.0543,-5.0543,-5.0543,-5.0543,-5.03,-5.0323,-5.0331,-5.0361,-5.0374,-5.0396,-5.0407,-5.0421,-5.0435,-5.0461,-5.0478,-5.0489,-5.0506,-5.0527,-5.0545,-5.055,-5.0556,-5.0558,-5.0562,-5.0549,-5.0547,-5.0546,-5.0541,-5.0559,-5.0559,-5.0575,-5.0575,-5.0575]},{"header":{"parameterUnit":"m.s-1","parameterCategory":1,"la1":30.2991,"la2":30.254,"lo1":-89.0895,"lo2":-89.0444,"dy":0.0017,"dx":0.0017,"nx":28,"ny":28,"refTime":"2025-07-16T09:00:00:Z","depth":0,"parameterNumber":3,"parameterNumberName":"V-component_of_WINDS"},"data":[0,0,0,0,0,0,0,0,0,0,0,0,0,0,0,0,0,0,0,0,0,0,0,0,0,0,0,0,0,0,0,0,0,0,0,0,0,0,0,0,0,0,0,0,0,0,0,0,0,0,0,0,0,0,0,0,0,0,6.1459,6.1462,0,6.1713,6.1716,6.1718,6.1733,6.173,6.1727,6.1724,6.198,6.1989,6.1998,0,0,0,0,0,0,0,0,0,0,0,0,0,6.0984,6.0993,6.1459,6.1462,6.1465,6.1712,6.1716,6.1719,6.1733,6.173,6.1726,6.1723,6.1977,6.1988,6.1999,0,0,0,0,0,0,0,0,0,0,0,0,0,6.1209,6.0996,6.1459,6.1502,6.1509,6.1712,6.1716,6.172,6.1734,6.173,6.1725,6.1721,6.1973,6.1987,6.2001,6.2176,0,0,6.2044,6.205,0,0,0,0,0,0,0,0,6.1196,6.1227,6.1493,6.15,6.1507,6.1687,6.1642,6.1873,6.1735,6.1648,6.1724,6.1719,6.1886,6.1907,6.1964,6.2188,6.2199,6.2046,6.2054,6.206,6.2064,0,0,0,0,0,0,0,6.1181,6.1216,6.1559,6.1497,6.1506,6.1508,6.1535,6.1686,6.1788,6.1656,6.1657,6.1687,6.1889,6.195,6.197,6.2202,6.2045,6.2058,6.2067,6.2072,6.2583,6.2587,0,0,0,0,0,0,6.1157,6.1203,6.1551,6.1567,6.1338,6.152,6.1551,6.1634,6.1787,6.1806,6.1691,6.1687,6.1928,6.1953,6.1979,6.2193,6.206,6.2074,6.2082,6.2578,6.2584,6.2589,0,0,0,0,0,0,6.1147,6.1188,6.1541,6.1385,6.1431,6.1533,6.1626,6.1641,6.1702,6.1813,6.1831,6.1735,6.1925,6.1959,6.2127,6.2202,6.208,6.2093,6.2572,6.2579,6.2586,6.2624,0,0,0,0,0,0,6.1133,6.1184,6.1253,6.1387,6.1439,6.1686,6.1631,6.1649,6.1727,6.1725,6.1859,6.1877,6.1924,6.2106,6.2141,6.222,6.2104,6.2565,6.2575,6.2584,6.2616,6.2631,6.2645,0,0,0,0,0,6.1116,6.1252,6.1256,6.1298,6.1526,6.169,6.172,6.1773,6.1733,6.1802,6.1874,6.1873,6.2189,6.2123,6.2163,6.2247,6.2561,6.2572,6.2583,6.261,6.2628,6.2644,0,0,0,0,0,0,6.1122,6.127,6.1276,6.146,6.1563,6.1692,6.1781,6.1791,6.1906,6.1898,6.1958,6.1988,6.2154,6.2218,6.2141,6.2424,6.237,6.239,6.2376,6.2395,6.2409,6.239,6.2116,0,0,0,0,0,6.1145,6.1267,6.139,6.154,6.1591,6.1677,6.175,6.1783,6.1891,6.1934,6.2017,6.2121,6.2244,6.2323,6.2442,6.2626,6.2655,6.2704,6.2718,6.2729,6.2745,6.2846,6.2869,6.2626,6.2626,6.2626,0,0,6.1193,6.1289,6.1362,6.1543,6.1627,6.175,6.1713,6.1846,6.1938,6.1953,6.2117,6.2183,6.2303,6.2479,6.2561,6.2537,6.2819,6.2743,6.2751,6.2762,6.286,6.2883,6.2903,6.2634,6.2632,6.2631,0,0,6.1343,6.1429,6.1563,6.1648,6.1775,6.1832,6.1864,6.1994,6.2038,6.2204,6.2218,6.2328,6.2539,6.2624,6.2694,6.2879,6.2882,6.2916,6.2989,6.3088,6.3107,6.3124,6.3189,6.3211,6.2932,6.2932,6.2932,0,6.1386,6.1575,6.1631,6.1764,6.1842,6.1864,6.2,6.2079,6.2238,6.2292,6.2263,6.2528,6.261,6.2807,6.2852,6.2909,6.2947,6.29,6.31,6.3118,6.3135,6.3197,6.3221,6.2935,6.2934,6.2934,6.2934,0,6.1621,6.1751,6.1844,6.1999,6.2089,6.2222,6.2298,6.2382,6.2406,6.2466,6.2634,6.2734,6.2874,6.2923,6.2948,6.3124,6.3105,6.3088,6.3034,6.316,6.3219,6.3244,6.2939,6.2938,6.2937,6.2936,0,0,6.178,6.1965,6.1998,6.2069,6.2212,6.2313,6.2448,6.2586,6.2656,6.2766,6.2879,6.3058,6.3043,6.3123,6.3158,6.3244,6.3383,6.3216,6.322,6.3243,6.3582,6.3593,6.362,6.3387,6.3392,6.3396,6.3571,0,6.1945,6.2186,6.2241,6.2448,6.2569,6.2592,6.2709,6.2809,6.2868,6.2979,6.3044,6.3169,6.3141,6.3189,6.3276,6.3348,6.3452,6.3336,6.3492,6.3497,6.3459,6.3651,6.3663,6.3824,6.3595,6.3599,6.3602,0,6.217,6.2286,6.2505,6.2632,6.2685,6.279,6.2921,6.3027,6.314,6.3177,6.3268,6.3294,6.3434,6.3376,6.3569,6.3489,6.3556,6.3601,6.3609,6.3624,6.3555,6.367,6.3877,6.39,6.364,6.3637,6.3634,0,6.2262,6.2473,6.2632,6.2692,6.2845,6.2918,6.2984,6.3094,6.3174,6.3288,6.3341,6.3469,6.354,6.3639,6.3699,6.365,6.3887,6.3833,6.392,6.3919,6.3967,6.3963,6.4186,6.4013,6.4013,6.4013,6.4012,0,6.244,6.2573,6.2676,6.2773,6.2922,6.2984,6.313,6.3197,6.3294,6.3404,6.3432,6.3535,6.3609,6.3721,6.3769,6.3921,6.3953,6.3986,6.3997,6.3983,6.3978,6.4026,6.4016,6.4019,6.4018,6.4016,6.4015,0,6.2568,6.2642,6.2816,6.2948,6.2984,6.3088,6.32,6.3295,6.3356,6.3494,6.3531,6.3626,6.376,6.383,6.3997,6.4029,6.42,6.4205,6.4162,6.4166,6.4249,6.4239,6.4509,6.4547,6.435,6.4352,6.4353,0,6.2675,6.2778,6.2921,6.2998,6.3067,6.3189,6.3271,6.3336,6.342,6.3558,6.3636,6.3772,6.3884,6.4097,6.418,6.4308,6.4316,6.4401,6.4335,6.4317,6.4315,6.4308,6.4318,6.4412,6.4414,6.4416,6.4417,0,6.2858,6.2891,6.3008,6.314,6.3237,6.3343,6.3448,6.3509,6.3591,6.3684,6.3822,6.3909,6.408,6.4215,6.4349,6.4417,6.4431,6.4438,6.4464,6.445,6.442,6.4436,6.4192,6.4431,6.4429,6.4428,6.4427,6.4427,6.2979,6.3071,6.3187,6.3317,6.3403,6.3501,6.3596,6.367,6.3787,6.3932,6.3964,6.4109,6.4221,6.4403,6.4475,6.459,6.4572,6.4611,6.462,6.4629,6.4632,6.4404,6.4614,6.4614,6.4614,6.4614,6.4613,0,6.3162,6.3238,6.3358,6.3504,6.3606,6.3613,6.3729,6.3814,6.3942,6.4046,6.4156,6.4315,6.4445,6.454,6.4673,6.4746,6.4755,6.4778,6.4773,6.4788,6.464,6.4604,6.4768,6.4768,6.4768,6.4768,6.4768,6.4768,6.3269,6.3426,6.3472,6.3672,6.3747,6.3891,6.3957,6.4047,6.413,6.4306,6.4415,6.4476,6.4576,6.4717,6.4837,6.4861,6.4908,6.4931,6.4955,6.4815,6.4798,6.4783,6.4748,6.4941,6.4941,6.5093,6.5095,6.5096]}]]